This is the latest recevied weather packets stored in our database for station/object IZ1UQG-1. If no packets are shown the sender has not sent any weather packets the latest 10 day(s).
| Time | Temp. | Humidity | Pressure | Rain* | Wind** | Luminosity | Snow |
|---|---|---|---|---|---|---|---|
| 1778161731 | 26.11° C | 44% | 1010.7 hPa | 37.59 mm | - | - | - |
| 1778161431 | 26.11° C | 48% | 1010.8 hPa | 39.88 mm | - | - | - |
| 1778161131 | 25.56° C | 51% | 1010.7 hPa | 39.12 mm | - | - | - |
| 1778160831 | 25° C | 52% | 1010.8 hPa | 37.59 mm | - | - | - |
| 1778160531 | 25° C | 50% | 1010.8 hPa | 39.88 mm | - | - | - |
| 1778160231 | 25° C | 51% | 1011 hPa | 41.4 mm | - | - | - |
| 1778159931 | 25° C | 50% | 1010.9 hPa | 37.59 mm | - | - | - |
| 1778159631 | 25° C | 49% | 1011 hPa | 41.4 mm | - | - | - |
| 1778159331 | 25.56° C | 49% | 1011.1 hPa | 39.12 mm | - | - | - |
| 1778159031 | 25° C | 50% | 1011 hPa | 41.91 mm | - | - | - |
| 1778158731 | 25° C | 48% | 1011 hPa | 34.54 mm | - | - | - |
| 1778158431 | 25° C | 46% | 1011 hPa | 40.39 mm | - | - | - |
| 1778158131 | 25.56° C | 45% | 1011 hPa | 35.05 mm | - | - | - |
| 1778157831 | 25° C | 45% | 1011 hPa | 34.54 mm | - | - | - |
| 1778157531 | 25.56° C | 45% | 1011 hPa | 37.59 mm | - | - | - |
| 1778157231 | 25.56° C | 46% | 1010.9 hPa | 44.96 mm | - | - | - |
| 1778156931 | 25.56° C | 46% | 1011 hPa | 39.88 mm | - | - | - |
| 1778156631 | 25.56° C | 47% | 1011.1 hPa | 40.89 mm | - | - | - |
| 1778156331 | 25.56° C | 46% | 1011 hPa | 45.47 mm | - | - | - |
| 1778156031 | 25.56° C | 46% | 1010.8 hPa | 46.48 mm | - | - | - |
| 1778155731 | 25° C | 49% | 1011 hPa | 45.47 mm | - | - | - |
| 1778155431 | 24.44° C | 50% | 1010.9 hPa | 42.93 mm | - | - | - |
| 1778155131 | 24.44° C | 48% | 1010.9 hPa | 38.61 mm | - | - | - |
| 1778154831 | 24.44° C | 48% | 1011 hPa | 49.02 mm | - | - | - |
| 1778154531 | 24.44° C | 48% | 1011.1 hPa | 52.07 mm | - | - | - |
* Rain latest hour (hover to see other rain measurements)
** Current wind speed in m/s (hover to see current wind gust speed)